User: anonymous   Login
Location: North Smoke Tower Site
(30.5430°N, 82.3390°W)
Time: 17:05:23
(UTC-04:00)
Language:

Cosmos 1980 Rocket - Orbit

View from above orbital plane
View from above orbital plane
View from above satellite
View from above satellite

Ground track
Ground track

The orbit data is extracted from the following two-line orbital elements,

1 19650U 88102B   16209.77317106 -.00000211 +00000-0 -83064-4 0  9991
2 19650 070.9993 337.2403 0015894 310.6662 049.3079 14.15741490429804
Epoch (UTC): 27 July 2016 18:33:21
Eccentricity: 0.0015894
inclination: 70.9993°
perigee height: 828 km
apogee height: 851 km
right ascension of ascending node: 337.2403°
argument of perigee: 310.6662°
revolutions per day: 14.15741490
mean anomaly at epoch: 49.3079°
orbit number at epoch: 42980

The dashed part of the orbit path shows where the satellite is in the earth's shadow,  

DLR